GW6564 Weather Reports


time (UTC)temp
C
wind
direction
speed
KPH
gust
KPH
rain 1hr
cm
rain 24hr
cm
rain mn
cm
humidity
%
barometer
mb
20260505065656 16 235 6.4 9.7 0.00 0.00 0.00 67 1010.2
20260505065153 16 242 4.8 6.4 0.00 0.00 0.00 67 1010.0
20260505064650 16 218 6.4 6.4 0.00 0.00 0.00 66 1010.0
20260505064148 16 250 3.2 12.9 0.00 0.00 0.00 65 1010.1
20260505063645 16 225 11.3 12.9 0.00 0.00 0.00 65 1010.0
20260505063141 16 201 3.2 9.7 0.00 0.00 0.00 64 1010.2
20260505062638 17 207 3.2 9.7 0.00 0.00 0.00 63 1010.0
20260505062135 17 231 9.7 12.9 0.00 0.00 0.00 63 1010.0
20260505061632 17 213 1.6 6.4 0.00 0.00 0.00 62 1010.0
20260505061130 17 229 3.2 6.4 0.00 0.00 0.00 61 1010.1
20260505060628 17 234 8.0 11.3 0.00 0.00 0.00 61 1010.1
20260505060124 17 245 9.7 12.9 0.00 0.00 0.00 61 1010.1
20260505055619 17 242 3.2 4.8 0.00 0.00 0.00 62 1010.1
20260505055116 17 245 4.8 9.7 0.00 0.00 0.00 62 1010.0
20260505054614 17 248 3.2 6.4 0.00 0.00 0.00 62 1010.0
20260505054112 17 233 4.8 14.5 0.00 0.00 0.00 61 1010.1
20260505053609 17 194 6.4 12.9 0.00 0.00 0.00 61 1010.3
20260505053105 17 224 4.8 9.7 0.00 0.00 0.00 61 1010.1
20260505052602 17 205 3.2 9.7 0.00 0.00 0.00 61 1010.3
20260505052100 17 224 4.8 9.7 0.00 0.00 0.00 60 1010.3
20260505051556 17 250 1.6 9.7 0.00 0.00 0.00 60 1010.2
20260505051055 17 252 6.4 14.5 0.00 0.00 0.00 60 1010.2
20260505050552 17 197 6.4 14.5 0.00 0.00 0.00 60 1010.1
20260505041520 17 235 6.4 11.3 0.00 0.00 0.00 59 1010.2
20260505041017 17 240 6.4 22.5 0.00 0.00 0.00 58 1010.2
20260505040515 17 215 6.4 6.4 0.00 0.00 0.00 58 1010.2
20260505040012 17 176 9.7 16.1 0.00 0.00 0.00 58 1010.2
20260505035508 17 215 3.2 9.7 0.00 0.00 0.00 59 1010.3
20260505035005 17 211 8.0 11.3 0.00 0.00 0.00 59 1010.2
20260505034501 17 221 6.4 9.7 0.00 0.00 0.00 58 1010.3
20260505033958 17 217 9.7 12.9 0.00 0.00 0.00 59 1010.3
20260505033455 17 230 11.3 22.5 0.00 0.00 0.00 58 1010.4
20260505032953 17 206 12.9 14.5 0.00 0.00 0.00 58 1010.3
20260505032450 17 210 8.0 17.7 0.00 0.00 0.00 59 1010.2
20260505031946 17 211 6.4 6.4 0.00 0.00 0.00 59 1010.2
20260505031443 17 219 4.8 12.9 0.00 0.00 0.00 58 1010.1
20260505030940 17 213 8.0 17.7 0.00 0.00 0.00 58 1010.3
20260505030436 17 208 6.4 9.7 0.00 0.00 0.00 58 1010.3
20260505025932 17 230 6.4 14.5 0.00 0.00 0.00 58 1010.4
20260505025429 17 211 8.0 16.1 0.00 0.00 0.00 57 1010.4
20260505024928 17 230 4.8 11.3 0.00 0.00 0.00 57 1010.3
20260505024425 17 191 6.4 12.9 0.00 0.00 0.00 56 1010.5
20260505023922 17 216 4.8 9.7 0.00 0.00 0.00 55 1010.5
20260505023419 17 246 1.6 9.7 0.00 0.00 0.00 55 1010.5
20260505022916 17 217 8.0 11.3 0.00 0.00 0.00 55 1010.6
20260505022414 17 210 3.2 14.5 0.00 0.00 0.00 54 1010.6
20260505021911 17 202 8.0 9.7 0.00 0.00 0.00 53 1010.4
20260505021407 17 208 9.7 11.3 0.00 0.00 0.00 52 1010.6
20260505020903 17 207 6.4 9.7 0.00 0.00 0.00 51 1010.4
20260505020358 17 224 6.4 9.7 0.00 0.00 0.00 51 1010.5
20260505015855 17 220 3.2 4.8 0.00 0.00 0.00 50 1010.5
20260505015353 17 226 1.6 1.6 0.00 0.00 0.00 49 1010.6
20260505014850 17 231 0.0 4.8 0.00 0.00 0.00 49 1010.4
20260505014347 17 232 0.0 6.4 0.00 0.00 0.00 48 1010.4
20260505013843 17 224 1.6 3.2 0.00 0.00 0.00 47 1010.4
20260505013340 18 240 1.6 1.6 0.00 0.00 0.00 46 1010.5
20260505012839 18 219 3.2 4.8 0.00 0.00 0.00 45 1010.6
20260505012337 18 225 3.2 6.4 0.00 0.00 0.00 45 1010.3
20260505011832 18 228 1.6 9.7 0.00 0.00 0.00 45 1010.3
20260505011329 18 194 3.2 4.8 0.00 0.00 0.00 44 1010.3
20260505010825 18 228 3.2 6.4 0.00 0.00 0.00 44 1010.3
20260505010321 18 226 3.2 6.4 0.00 0.00 0.00 44 1010.1
20260505005818 18 219 8.0 9.7 0.00 0.00 0.00 43 1010.1
20260505005315 18 235 1.6 6.4 0.00 0.00 0.00 43 1010.0
20260505004812 19 208 3.2 4.8 0.00 0.00 0.00 42 1010.0
20260505004308 19 230 3.2 4.8 0.00 0.00 0.00 42 1009.8
20260505003806 20 221 6.4 9.7 0.00 0.00 0.00 41 1009.9
20260505003303 20 223 6.4 11.3 0.00 0.00 0.00 40 1009.9
20260505002759 20 207 4.8 14.5 0.00 0.00 0.00 40 1009.9
20260505002256 20 208 4.8 6.4 0.00 0.00 0.00 40 1009.7
20260505001754 20 220 3.2 4.8 0.00 0.00 0.00 40 1009.7
20260505001251 20 231 1.6 3.2 0.00 0.00 0.00 40 1009.7
20260505000748 20 233 0.0 1.6 0.00 0.00 0.00 39 1009.6
20260505000246 20 239 1.6 3.2 0.00 0.00 0.00 38 1009.6
20260504235742 20 225 6.4 9.7 0.00 0.00 0.00 37 1009.6
20260504235239 21 226 3.2 9.7 0.00 0.00 0.00 37 1009.4
20260504234736 21 208 4.8 11.3 0.00 0.00 0.00 37 1009.5
20260504234233 21 232 4.8 9.7 0.00 0.00 0.00 37 1009.6
20260504233730 21 201 4.8 9.7 0.00 0.00 0.00 36 1009.4
20260504233225 21 238 1.6 9.7 0.00 0.00 0.00 36 1009.3
20260504232723 21 244 1.6 3.2 0.00 0.00 0.00 36 1009.4
20260504232219 21 354 6.4 9.7 0.00 0.00 0.00 36 1009.4
20260504231716 21 200 4.8 9.7 0.00 0.00 0.00 35 1009.5
20260504231213 21 256 3.2 9.7 0.00 0.00 0.00 35 1009.4
20260504230709 21 227 8.0 17.7 0.00 0.00 0.00 34 1009.4
20260504230208 22 209 11.3 16.1 0.00 0.00 0.00 34 1009.3
20260504225706 22 224 4.8 9.7 0.00 0.00 0.00 34 1009.6
20260504225201 22 273 6.4 17.7 0.00 0.00 0.00 33 1009.4
20260504224659 22 261 8.0 17.7 0.00 0.00 0.00 33 1009.3
20260504224156 22 262 8.0 12.9 0.00 0.00 0.00 33 1009.5
20260504223653 22 208 12.9 16.1 0.00 0.00 0.00 32 1009.4
20260504223148 22 276 9.7 16.1 0.00 0.00 0.00 32 1009.4
20260504222645 22 231 9.7 22.5 0.00 0.00 0.00 32 1009.4
20260504222142 22 289 6.4 16.1 0.00 0.00 0.00 32 1009.4
20260504221640 22 270 6.4 17.7 0.00 0.00 0.00 32 1009.4
20260504221136 22 240 6.4 14.5 0.00 0.00 0.00 32 1009.5
20260504220633 22 204 8.0 11.3 0.00 0.00 0.00 32 1009.5
20260504220131 22 265 9.7 14.5 0.00 0.00 0.00 32 1009.5
20260504215626 22 199 12.9 24.1 0.00 0.00 0.00 32 1009.5
20260504215124 22 198 20.9 29.0 0.00 0.00 0.00 31 1009.6
20260504214620 22 244 9.7 24.1 0.00 0.00 0.00 31 1009.5
20260504214116 22 265 8.0 17.7 0.00 0.00 0.00 31 1009.5
20260504213613 22 254 1.6 11.3 0.00 0.00 0.00 31 1009.5
20260504213110 22 241 6.4 17.7 0.00 0.00 0.00 31 1009.5
20260504212606 22 244 8.0 14.5 0.00 0.00 0.00 31 1009.8
20260504212103 22 228 4.8 16.1 0.00 0.00 0.00 31 1009.7
20260504211600 22 284 4.8 11.3 0.00 0.00 0.00 32 1009.4
20260504211057 22 239 8.0 20.9 0.00 0.00 0.00 32 1009.4
20260504210554 22 253 6.4 20.9 0.00 0.00 0.00 31 1009.5
20260504210050 22 250 6.4 11.3 0.00 0.00 0.00 31 1009.4
20260504205548 22 232 11.3 24.1 0.00 0.00 0.00 30 1009.6
20260504205046 22 263 4.8 16.1 0.00 0.00 0.00 30 1009.6
20260504204544 22 254 9.7 22.5 0.00 0.00 0.00 31 1009.6
20260504204043 22 258 11.3 24.1 0.00 0.00 0.00 30 1009.6
20260504203540 22 298 11.3 16.1 0.00 0.00 0.00 30 1009.5
20260504203038 22 228 9.7 24.1 0.00 0.00 0.00 29 1009.5
20260504202533 22 207 17.7 25.7 0.00 0.00 0.00 29 1009.7
20260504202030 23 248 8.0 14.5 0.00 0.00 0.00 30 1009.6
20260504201527 23 267 6.4 14.5 0.00 0.00 0.00 29 1009.6
20260504201025 23 242 6.4 17.7 0.00 0.00 0.00 30 1009.5
20260504200521 23 226 8.0 11.3 0.00 0.00 0.00 30 1009.5
20260504200018 23 268 8.0 14.5 0.00 0.00 0.00 29 1009.6
20260504195514 23 256 8.0 17.7 0.00 0.00 0.00 28 1009.9
20260504195011 23 248 8.0 14.5 0.00 0.00 0.00 29 1009.9
20260504194507 23 250 12.9 20.9 0.00 0.00 0.00 28 1010.0
20260504194002 23 245 6.4 11.3 0.00 0.00 0.00 30 1009.8
20260504193500 23 204 12.9 17.7 0.00 0.00 0.00 29 1010.0
20260504192959 23 264 4.8 20.9 0.00 0.00 0.00 30 1009.9
20260504192456 23 244 6.4 20.9 0.00 0.00 0.00 29 1010.1
20260504191955 23 195 9.7 14.5 0.00 0.00 0.00 29 1010.1
20260504191452 23 262 4.8 14.5 0.00 0.00 0.00 31 1010.2
20260504190947 22 278 8.0 11.3 0.00 0.00 0.00 30 1010.2
20260504190443 22 221 9.7 17.7 0.00 0.00 0.00 29 1010.4
20260504185940 22 269 4.8 9.7 0.00 0.00 0.00 30 1010.5
20260504185437 22 241 8.0 17.7 0.00 0.00 0.00 30 1010.4
20260504184933 22 257 9.7 14.5 0.00 0.00 0.00 31 1010.6
20260504184429 22 255 3.2 11.3 0.00 0.00 0.00 30 1010.7
20260504183925 22 308 6.4 14.5 0.00 0.00 0.00 31 1010.9
20260504183423 22 288 11.3 17.7 0.00 0.00 0.00 30 1010.9
20260504182921 22 222 4.8 9.7 0.00 0.00 0.00 31 1011.0
20260504182417 22 266 1.6 14.5 0.00 0.00 0.00 31 1011.0
20260504181914 22 244 11.3 24.1 0.00 0.00 0.00 30 1011.1
20260504181411 22 232 8.0 20.9 0.00 0.00 0.00 30 1011.1
20260504180910 22 264 9.7 17.7 0.00 0.00 0.00 29 1011.3
20260504180408 22 244 4.8 9.7 0.00 0.00 0.00 30 1011.1
20260504175906 22 226 9.7 14.5 0.00 0.00 0.00 31 1011.5
20260504175403 21 272 8.0 12.9 0.00 0.00 0.00 32 1011.6
20260504174901 21 236 6.4 14.5 0.00 0.00 0.00 31 1011.3
20260504174358 21 252 4.8 16.1 0.00 0.00 0.00 31 1011.5
20260504173855 22 259 17.7 25.7 0.00 0.00 0.00 29 1011.6
20260504173351 21 267 6.4 9.7 0.00 0.00 0.00 31 1011.7
20260504172849 21 265 3.2 11.3 0.00 0.00 0.00 32 1011.9
20260504172345 21 266 9.7 16.1 0.00 0.00 0.00 31 1011.9
20260504171841 21 263 8.0 11.3 0.00 0.00 0.00 30 1011.7
20260504171338 21 277 6.4 11.3 0.00 0.00 0.00 31 1012.0
20260504170836 22 239 8.0 24.1 0.00 0.00 0.00 29 1012.1
20260504170332 21 304 3.2 4.8 0.00 0.00 0.00 32 1011.9
20260504160251 20 256 9.7 11.3 0.00 0.00 0.00 35 1012.7
20260504150716 18 264 3.2 12.9 0.00 0.00 0.00 40 1013.4
20260504150213 18 273 12.9 17.7 0.00 0.00 0.00 40 1013.3
20260504141142 17 194 14.5 20.9 0.00 0.00 0.00 47 1013.4
20260504140639 17 236 14.5 24.1 0.00 0.00 0.00 47 1013.7
20260504140134 17 288 8.0 17.7 0.00 0.00 0.00 48 1013.5
20260504130602 15 263 3.2 14.5 0.00 0.00 0.00 55 1013.9
20260504110450 10 239 1.6 4.8 0.00 0.00 0.00 73 1014.8
20260504100413 8 230 4.8 6.4 0.00 0.00 0.00 71 1014.8
20260504081806 8 244 0.0 4.8 0.00 0.00 0.00 63 1014.8
20260504081302 8 236 3.2 4.8 0.00 0.00 0.00 63 1014.6
20260504080759 8 226 1.6 3.2 0.00 0.00 0.00 63 1014.7
20260504080255 8 257 1.6 3.2 0.00 0.00 0.00 62 1014.5
20260504070223 8 251 0.0 3.2 0.00 0.00 0.00 61 1014.3